TIANMU-1 10

Last updated on Thu Sep 24 2026 00:02:58 GMT+0000 (Coordinated Universal Time)

1 57402U 23101D 26266.62200390 .00004486 00000+0 15315-3 0 9998 2 57402 97.2530 315.3183 0005813 131.9480 228.2258 15.30808516176698
UTC large
Height (km)
Speed (km/s)
/
Latitude / Longitude
Inclination (degrees)
Orbital Period (minutes)
Azimuth
Elevation
Range (km)
Doppler Factor

Next 0 passes for location: London (51.5072 / 0.1276)

No passes found over London.
TIANMU-1 10